NOAA 16 DEB, 42375

Orbit data source: Space-Track

NOAA 16 DEB, 42375 is space debris in SSO originally from a launch on Thu, 21 Sep 2000 UTC launched from the Air Force Western Test Range (AFWTR). Debris objects in space refer to the collection of defunct objects orbiting the Earth. Examples of debris include non-operational satellites, rocket bodies, and fragments generated from explosions, collisions, or faulty payload assembly.

Loading next visibility...
Identifier
42375, 2000-055RT
Orbit
SSO
Country
Flag of USUS
Related business
Manufacturer
Unknown
Mission
Spacecraft
Bus & Motor
Unknown
Mass
Unknown
Launch date (UTC)
2000-09-21 (25 years ago)
Launch vehicle
Unknown
Launch site
Air Force Western Test Range (AFWTR)
Object type
Payload
Rocket body
Debris
Shape & HBR
Unknown shape, 0.1 m
Radar Cross Section
Small (<0.1 m²)

Expand to show TLE details & history
Last TLE update: 8 hours ago

TLE from 8 hours ago
0 NOAA 16 DEB
1 42375U 00055RT  26037.14254726  .00005367  00000-0  21681-2 0  9991
2 42375  98.6706 111.4789 0007601 166.5285 193.6100 14.28262816507559
Epoch: 2026-02-06T03:25Z
TLE epoch observation values (Epoch: 2026-02-06T03:25:16.083Z)
Latitude
-0.00005°
Longitude
-76.12277°
Altitude
805.773 km
Speed
7.448 km/s
True Right ascension
07h 25m 54s
True Declination
0° 00' 00"
Sunlit
Object was in full shadow at epoch
Visualization orbit readout
Latitude
Unknown
Longitude
Unknown
Altitude
Unknown
Speed
Unknown
Apparent Right ascension
Unknown
Apparent Declination
Unknown
Sunlit
N/A
Visualization observer readout
Local Sidereal Time
13:06:04
Azimuth
Unknown
Elevation
Unknown
Doppler factor
Unknown
Orbital elements
Apogee altitude
800.141 km
Perigee altitude
789.237 km
Semi-major axis
7,172.826 km
Eccentricity
0.00076
Inclination
98.6706°
RAAN
111.4789°
Arg. of periapsis
166.5285°
True anomaly
193.58952°
Mean anomaly
193.61°
Eccentric anomaly
193.59976°
Mean motion
3.57279 °/min
Orbital period
100.76 mins
BSTAR
0.0021681
Loading maneuver chart data...
Computing Atmospheric mass density...
Loading historical data...
Loading historical data...
Loading historical data...
Loading historical data...
Loading historical data...
Loading historical data...
Loading historical data...

Documentation

Showing up to 5 results
|